This is the latest recevied weather packets stored in our database for station/object N4OOJ-13. If no packets are shown the sender has not sent any weather packets the latest 10 day(s).
| Time | Temp. | Humidity | Pressure | Rain* | Wind** | Luminosity | Snow |
|---|---|---|---|---|---|---|---|
| 1787449829 | 22.22° C | 99% | 1016.3 hPa | 0.25 mm | - | - | - |
| 1787449224 | 22.22° C | 99% | 1016.2 hPa | 0.25 mm | - | - | - |
| 1787448619 | 22.78° C | 99% | 1016.2 hPa | 0.25 mm | - | - | - |
| 1787448031 | 22.78° C | 99% | 1016.5 hPa | 1.52 mm | - | - | - |
| 1787447432 | 22.78° C | 99% | 1016.4 hPa | 2.29 mm | - | - | - |
| 1787446830 | 23.33° C | 99% | 1016.3 hPa | 2.54 mm | - | - | - |
| 1787446229 | 23.89° C | 99% | 1016.2 hPa | 2.54 mm | - | - | - |
| 1787445621 | 23.89° C | 99% | 1016.2 hPa | 2.54 mm | - | - | - |
| 1787445034 | 23.89° C | 99% | 1016.2 hPa | 2.54 mm | - | - | - |
| 1787444432 | 23.89° C | 99% | 1015.1 hPa | 1.02 mm | - | - | - |
| 1787443831 | 23.89° C | 99% | 1015.2 hPa | 0.25 mm | - | - | - |
| 1787443226 | 23.89° C | 99% | 1015.2 hPa | 0 mm | - | - | - |
| 1787442627 | 23.89° C | 99% | 1015 hPa | 0 mm | - | - | - |
| 1787442021 | 23.89° C | 99% | 1015.1 hPa | 0 mm | - | - | - |
| 1787441416 | 23.89° C | 99% | 1015.3 hPa | 0 mm | - | - | - |
| 1787440835 | 24.44° C | 99% | 1015.2 hPa | 0 mm | - | - | - |
| 1787440225 | 24.44° C | 99% | 1015.2 hPa | 0 mm | - | - | - |
| 1787439620 | 24.44° C | 99% | 1015.2 hPa | 1.78 mm | - | - | - |
| 1787439021 | 24.44° C | 99% | 1015 hPa | 2.03 mm | - | - | - |
| 1787438416 | 25° C | 98% | 1014.8 hPa | 2.29 mm | - | - | - |
| 1787437828 | 25° C | 98% | 1014.2 hPa | 2.29 mm | - | - | - |
| 1787437223 | 24.44° C | 99% | 1014.6 hPa | 2.79 mm | - | - | - |
| 1787436617 | 23.33° C | 99% | 1015.2 hPa | 2.79 mm | - | - | - |
| 1787435428 | 23.89° C | 99% | 1015.6 hPa | 1.02 mm | - | - | - |
| 1787434828 | 23.89° C | 99% | 1015 hPa | 0.76 mm | - | - | - |
* Rain latest hour (hover to see other rain measurements)
** Current wind speed in m/s (hover to see current wind gust speed)